AMOS 5I (ASIASAT 2)

导读

AMOS-5i(原亚洲二号卫星ASIASAT 2)由洛克希德·马丁公司研制,1995年11月28日,于西昌卫星发射中心搭乘长征二号E运载火箭升空。该卫星属地球静止轨道通信卫星,定点东经100.5度,发射质量约3379千克,设计用于覆盖亚太区域,提供通信广播服务,后经转手成为以色列空间通信公司的AMOS系列卫星,支撑中东及周边区域通信业务。

Basic Information
目录编号:
23723
目录名称:
AMOS 5I (ASIASAT 2)
国际标识:
1995-064A
轨道中心:
EARTH
卫星名称:
AMOS 5I (ASIASAT 2)
卫星全名:
--
卫星状态:
在轨 (已飞行11186 天)
发射日期:
1995-11-28 UTC
国别 :
以色列 (IL)
星等 :
--
Orbit Information
数据来源 国际轨道数据 AOE轨道数据
星历时间 2026-07-13T21:05:25+0800
18小时前
查看轨道信息
2026-07-12T10:00:00+0800
2天前
查看轨道信息
半长轴 42438.296km 42437.897km
偏心率 0.0006639 0.0006757
轨道倾角 11.344° 11.342°
近地点辐角 344.093° 343.549°
升交点赤经 41.419° 41.434°
平近点角 23.810° 221.643°
近地点 36031.984km 36031.084km
远地点 36088.334km 36088.436km
周期 1450.096分钟 1450.075分钟
每日圈数 0.993038 0.993052
Detailed Information
使用方式:
暂无
2D Orbit Map
3D Orbit Map
Orbit Altitude Analysis Chart
Orbit Inclination Analysis Chart
Orbit Comprehensive Analysis Chart
View Comprehensive Chart